Regional Weather Roundup
Issued by NWS

Home | Current Version | Previous Version | Text Only | Print | Product List | Glossary On
Versions: 1 2 3 4 5 6 7 8 9 10 11 12 13 14 15 16 17 18 19 20 21 22 23 24 25 26 27 28 29 30 31 32 33 34 35 36 37 38 39 40 41 42 43 44 45 46 47 48 49 50
000
ASUS43 KLMK 020610
RWRKY
KENTUCKY REGIONAL WEATHER ROUNDUP
NATIONAL WEATHER SERVICE LOUISVILLE KY
100 AM EST WED DEC 02 2020

NOTE "FAIR" INDICATES FEW OR NO CLOUDS BELOW 12,000 FEET
WITH NO SIGNIFICANT WEATHER AND/OR OBSTRUCTIONS TO VISIBILITY.

KYZ001>023-026-027-061>063-070>075-020700-
WESTERN AND SOUTH CENTRAL KENTUCKY

CITY           SKY/WX    TMP DP  RH WIND       PRES   REMARKS
PADUCAH        CLEAR     24  19  81 CALM      30.27R
HENDERSON      CLEAR     21  20  96 SW3       30.29R
OWENSBORO      CLEAR     22  19  89 CALM      30.28R
HOPKINSVILLE   CLEAR     25  19  79 CALM      30.26R
BOWLING GREEN  CLEAR     28  21  75 CALM      30.28R
GLASGOW        CLEAR     21  21  98 CALM      30.26S
$$

KYZ024-025-028>034-038-045-046-053-020700-
NORTH CENTRAL KENTUCKY

CITY           SKY/WX    TMP DP  RH WIND       PRES   REMARKS
LOUISVILLE/SDF CLEAR     31  22  69 W7        30.24R WCI  24
LOUISVILLE/LOU CLEAR     27  19  72 W6        30.24R WCI  20
FORT KNOX      CLEAR     23  20  88 CALM      30.24R
$$

KYZ035>037-039>044-047>052-055>060-089>105-020700-
NORTHEAST KENTUCKY

CITY           SKY/WX    TMP DP  RH WIND       PRES   REMARKS
LEXINGTON      CLEAR     22  18  85 SW5       30.20S WCI  16
COVINGTON      PTCLDY    25  19  78 W6        30.18R WCI  18
FRANKFORT      CLEAR     25  19  78 W6        30.20S WCI  18
$$

KYZ054-064>069-076>088-106>120-020700-
SOUTHEAST KENTUCKY

CITY           SKY/WX    TMP DP  RH WIND       PRES   REMARKS
JACKSON        CLEAR     26  20  77 SW5       30.18R WCI  20
LONDON         CLEAR     24  22  91 SW3       30.22R
SOMERSET       CLEAR     21  19  93 CALM      30.25F
MIDDLESBORO    CLEAR     22  22 100 CALM      30.24S
MONTICELLO     CLEAR     15  13  91 W9        30.27S WCI   3
$$




USA.gov is the U.S. government's official web portal to all federal, state and local government web resources and services.